カタログに戻る

STARLINK-6156

運用中通信VLEO
NORAD 56374·PAYLOAD·🇺🇸 United States

打ち上げ May 4, 2023 から Cape Canaveral Space Force Station

Loading…

次のパス (今後24時間)

TLE

最新Source: CelesTrak SupGP

元期: Sep 15, 2026, 01:27 UTC

1 56374C 23061A   26258.06090278 -.00024766  00000+0 -89723-3 0  2588
2 56374  43.0017 208.8595 0000498 278.5083 188.1537 15.27583553    11

AllMySatでSTARLINK-6156をリアルタイム追跡

Download on the App Store